Time,TemperatureF,DewpointF,PressureIn,WindDirection,WindDirectionDegrees,WindSpeedMPH,WindSpeedGustMPH,Humidity,HourlyPrecipIn,Conditions,Clouds,dailyrainin,SoftwareType,DateUTC
2013-07-05 00:01:00,75.7,51.6,26.98,North,0,0.0,0.0,43,0.00,CLR,OVC,0.00,WeatherDisplay:10.37,2013-07-05 05:01:00,
2013-07-05 00:06:00,75.4,51.9,26.98,North,0,0.0,0.0,44,0.00,CLR,OVC,0.00,WeatherDisplay:10.37,2013-07-05 05:06:00,
2013-07-05 00:11:00,74.8,52.1,26.98,North,0,0.0,0.0,45,0.00,CLR,OVC,0.00,WeatherDisplay:10.37,2013-07-05 05:11:00,
2013-07-05 00:16:00,74.7,51.9,26.98,North,0,0.0,0.0,45,0.00,CLR,OVC,0.00,WeatherDisplay:10.37,2013-07-05 05:16:00,
2013-07-05 00:21:00,74.3,51.6,26.98,North,0,0.0,0.0,45,0.00,CLR,OVC,0.00,WeatherDisplay:10.37,2013-07-05 05:21:00,
2013-07-05 00:26:00,73.9,51.3,26.98,North,0,0.0,0.0,45,0.00,CLR,OVC,0.00,WeatherDisplay:10.37,2013-07-05 05:26:00,
2013-07-05 00:31:00,73.6,50.9,26.98,North,0,0.0,0.0,45,0.00,CLR,OVC,0.00,WeatherDisplay:10.37,2013-07-05 05:31:00,
2013-07-05 00:36:00,73.4,51.4,26.98,North,0,0.0,0.0,46,0.00,CLR,OVC,0.00,WeatherDisplay:10.37,2013-07-05 05:36:00,
2013-07-05 00:41:00,73.2,50.0,26.98,NE,45,0.0,0.0,44,0.00,CLR,OVC,0.00,WeatherDisplay:10.37,2013-07-05 05:41:00,
2013-07-05 00:46:00,73.0,49.8,26.98,NE,45,0.0,0.0,44,0.00,CLR,OVC,0.00,WeatherDisplay:10.37,2013-07-05 05:46:00,
2013-07-05 00:51:00,72.9,50.3,26.98,NE,45,0.0,0.0,45,0.00,CLR,OVC,0.00,WeatherDisplay:10.37,2013-07-05 05:51:00,
2013-07-05 00:56:00,72.7,50.7,26.99,East,90,0.0,0.0,46,0.00,CLR,OVC,0.00,WeatherDisplay:10.37,2013-07-05 05:56:00,
2013-07-05 01:01:00,72.5,50.5,26.98,South,180,0.0,0.0,46,0.00,CLR,OVC,0.00,WeatherDisplay:10.37,2013-07-05 06:01:00,
2013-07-05 01:06:00,72.5,50.5,26.98,South,180,0.0,0.0,46,0.00,CLR,OVC,0.00,WeatherDisplay:10.37,2013-07-05 06:06:00,
2013-07-05 01:12:00,71.6,50.3,26.98,South,180,0.0,0.0,47,0.00,CLR,OVC,0.00,WeatherDisplay:10.37,2013-07-05 06:12:00,
2013-07-05 01:17:00,71.4,50.7,26.98,NE,45,0.0,0.0,48,0.00,CLR,OVC,0.00,WeatherDisplay:10.37,2013-07-05 06:17:00,
2013-07-05 01:22:00,71.2,50.5,26.98,NE,45,0.0,0.0,48,0.00,CLR,OVC,0.00,WeatherDisplay:10.37,2013-07-05 06:22:00,
2013-07-05 01:27:00,71.1,50.4,26.99,NE,45,0.0,0.0,48,0.00,CLR,OVC,0.00,WeatherDisplay:10.37,2013-07-05 06:27:00,
2013-07-05 01:32:00,70.9,50.2,26.98,NE,45,0.0,0.0,48,0.00,CLR,OVC,0.00,WeatherDisplay:10.37,2013-07-05 06:32:00,
2013-07-05 01:37:00,70.7,50.0,26.98,NE,45,0.0,0.0,48,0.00,CLR,OVC,0.00,WeatherDisplay:10.37,2013-07-05 06:37:00,
2013-07-05 01:42:00,70.5,50.4,26.98,East,90,0.0,0.0,49,0.00,CLR,OVC,0.00,WeatherDisplay:10.37,2013-07-05 06:42:00,
2013-07-05 01:47:00,70.3,50.3,26.98,East,90,0.0,0.0,49,0.00,CLR,OVC,0.00,WeatherDisplay:10.37,2013-07-05 06:47:00,
2013-07-05 01:52:00,70.2,50.6,26.98,SW,225,0.0,0.0,50,0.00,CLR,OVC,0.00,WeatherDisplay:10.37,2013-07-05 06:52:00,
2013-07-05 01:57:00,70.0,51.0,26.98,South,180,1.1,0.0,51,0.00,CLR,OVC,0.00,WeatherDisplay:10.37,2013-07-05 06:57:00,
2013-07-05 02:02:00,69.8,50.9,26.98,North,0,0.0,0.0,51,0.00,CLR,OVC,0.00,WeatherDisplay:10.37,2013-07-05 07:02:00,
2013-07-05 02:07:00,69.4,51.6,26.98,SE,135,0.0,0.0,53,0.00,CLR,OVC,0.00,WeatherDisplay:10.37,2013-07-05 07:07:00,
2013-07-05 02:12:00,69.4,51.6,26.98,SW,225,0.0,0.0,53,0.00,CLR,OVC,0.00,WeatherDisplay:10.37,2013-07-05 07:12:00,
2013-07-05 02:17:00,69.1,51.2,26.98,East,90,0.0,0.0,53,0.00,CLR,OVC,0.00,WeatherDisplay:10.37,2013-07-05 07:17:00,
2013-07-05 02:22:00,69.1,51.2,26.98,East,90,0.0,0.0,53,0.00,CLR,OVC,0.00,WeatherDisplay:10.37,2013-07-05 07:22:00,
2013-07-05 02:27:00,68.9,51.1,26.98,East,90,0.0,0.0,53,0.00,CLR,OVC,0.00,WeatherDisplay:10.37,2013-07-05 07:27:00,
2013-07-05 02:32:00,68.7,50.9,26.98,East,90,0.0,0.0,53,0.00,CLR,OVC,0.00,WeatherDisplay:10.37,2013-07-05 07:32:00,
2013-07-05 02:37:00,68.5,50.7,26.98,East,90,0.0,0.0,53,0.00,CLR,OVC,0.00,WeatherDisplay:10.37,2013-07-05 07:37:00,
2013-07-05 02:42:00,68.4,51.1,26.98,NE,45,0.0,0.0,54,0.00,CLR,OVC,0.00,WeatherDisplay:10.37,2013-07-05 07:42:00,
2013-07-05 02:47:00,68.4,51.1,26.98,East,90,0.0,0.0,54,0.00,CLR,OVC,0.00,WeatherDisplay:10.37,2013-07-05 07:47:00,
2013-07-05 02:52:00,68.2,50.9,26.98,North,0,0.0,0.0,54,0.00,CLR,OVC,0.00,WeatherDisplay:10.37,2013-07-05 07:52:00,
2013-07-05 02:57:00,68.2,50.9,26.97,East,90,0.0,0.0,54,0.00,CLR,OVC,0.00,WeatherDisplay:10.37,2013-07-05 07:57:00,
2013-07-05 03:02:00,68.2,50.9,26.98,NE,45,0.0,0.0,54,0.00,CLR,OVC,0.00,WeatherDisplay:10.37,2013-07-05 08:02:00,
2013-07-05 03:07:00,68.2,50.9,26.97,NE,45,0.0,0.0,54,0.00,CLR,OVC,0.00,WeatherDisplay:10.37,2013-07-05 08:07:00,
2013-07-05 03:12:00,68.2,51.4,26.97,East,90,0.0,0.0,55,0.00,CLR,OVC,0.00,WeatherDisplay:10.37,2013-07-05 08:12:00,
2013-07-05 03:17:00,68.2,51.4,26.97,East,90,1.1,0.0,55,0.00,CLR,OVC,0.00,WeatherDisplay:10.37,2013-07-05 08:17:00,
2013-07-05 03:22:00,68.2,51.4,26.97,East,90,0.0,0.0,55,0.00,CLR,OVC,0.00,WeatherDisplay:10.37,2013-07-05 08:22:00,
2013-07-05 03:27:00,68.2,51.4,26.97,NE,45,0.0,0.0,55,0.00,CLR,OVC,0.00,WeatherDisplay:10.37,2013-07-05 08:27:00,
2013-07-05 03:32:00,68.4,51.6,26.97,SE,135,0.0,0.0,55,0.00,CLR,OVC,0.00,WeatherDisplay:10.37,2013-07-05 08:32:00,
2013-07-05 03:37:00,68.4,51.6,26.97,SE,135,1.6,0.0,55,0.00,CLR,OVC,0.00,WeatherDisplay:10.37,2013-07-05 08:37:00,
2013-07-05 03:42:00,68.4,51.6,26.97,East,90,1.1,1.1,55,0.00,CLR,OVC,0.00,WeatherDisplay:10.37,2013-07-05 08:42:00,
2013-07-05 03:47:00,68.2,51.4,26.96,North,0,0.0,0.0,55,0.00,CLR,OVC,0.00,WeatherDisplay:10.37,2013-07-05 08:47:00,
2013-07-05 03:52:00,68.2,51.4,26.97,East,90,0.0,0.0,55,0.00,CLR,OVC,0.00,WeatherDisplay:10.37,2013-07-05 08:52:00,
2013-07-05 03:57:00,68.2,51.4,26.97,East,90,0.0,0.0,55,0.00,CLR,OVC,0.00,WeatherDisplay:10.37,2013-07-05 08:57:00,
2013-07-05 04:03:00,68.0,51.7,26.97,SE,135,0.0,0.0,56,0.00,CLR,OVC,0.00,WeatherDisplay:10.37,2013-07-05 09:03:00,
2013-07-05 04:08:00,68.0,52.2,26.96,West,270,0.0,0.0,57,0.00,CLR,OVC,0.00,WeatherDisplay:10.37,2013-07-05 09:08:00,
2013-07-05 04:13:00,67.8,52.5,26.97,East,90,0.0,0.0,58,0.00,CLR,OVC,0.00,WeatherDisplay:10.37,2013-07-05 09:13:00,
2013-07-05 04:18:00,67.6,52.3,26.97,East,90,0.0,0.0,58,0.00,CLR,OVC,0.00,WeatherDisplay:10.37,2013-07-05 09:18:00,
2013-07-05 04:24:00,67.6,52.3,26.96,East,90,0.0,0.0,58,0.00,CLR,OVC,0.00,WeatherDisplay:10.37,2013-07-05 09:24:00,
2013-07-05 04:29:00,67.6,52.3,26.96,East,90,0.0,0.0,58,0.00,CLR,OVC,0.00,WeatherDisplay:10.37,2013-07-05 09:29:00,
2013-07-05 04:34:00,67.6,52.8,26.96,East,90,0.0,0.0,59,0.00,CLR,OVC,0.00,WeatherDisplay:10.37,2013-07-05 09:34:00,
2013-07-05 04:39:00,67.6,52.8,26.97,East,90,1.1,0.0,59,0.00,CLR,OVC,0.00,WeatherDisplay:10.37,2013-07-05 09:39:00,
2013-07-05 04:44:00,67.6,52.8,26.96,East,90,0.0,0.0,59,0.00,CLR,OVC,0.00,WeatherDisplay:10.37,2013-07-05 09:44:00,
2013-07-05 04:49:00,67.6,52.8,26.96,East,90,0.0,0.0,59,0.00,CLR,OVC,0.00,WeatherDisplay:10.37,2013-07-05 09:49:00,
2013-07-05 04:54:00,67.6,52.8,26.96,SE,135,1.1,0.0,59,0.00,CLR,OVC,0.00,WeatherDisplay:10.37,2013-07-05 09:54:00,
2013-07-05 05:00:00,67.5,52.6,26.96,West,270,1.1,0.0,59,0.00,CLR,OVC,0.00,WeatherDisplay:10.37,2013-07-05 10:00:00,
2013-07-05 05:05:00,67.5,52.6,26.96,West,270,1.1,0.0,59,0.00,CLR,OVC,0.00,WeatherDisplay:10.37,2013-07-05 10:05:00,
2013-07-05 05:10:00,67.6,52.8,26.96,South,180,0.0,0.0,59,0.00,CLR,OVC,0.00,WeatherDisplay:10.37,2013-07-05 10:10:00,
2013-07-05 05:16:00,67.6,52.8,26.95,SW,225,1.1,0.0,59,0.00,CLR,OVC,0.00,WeatherDisplay:10.37,2013-07-05 10:16:00,
2013-07-05 05:21:00,67.6,52.8,26.95,West,270,2.3,2.3,59,0.00,CLR,OVC,0.00,WeatherDisplay:10.37,2013-07-05 10:21:00,
2013-07-05 05:26:00,67.6,52.8,26.95,East,90,1.1,0.0,59,0.00,CLR,OVC,0.00,WeatherDisplay:10.37,2013-07-05 10:26:00,
2013-07-05 05:31:00,67.6,52.8,26.95,South,180,3.5,0.0,59,0.00,CLR,OVC,0.00,WeatherDisplay:10.37,2013-07-05 10:31:00,
2013-07-05 05:37:00,67.5,52.6,26.95,South,180,3.5,3.5,59,0.00,CLR,OVC,0.00,WeatherDisplay:10.37,2013-07-05 10:37:00,
2013-07-05 05:42:00,67.5,52.6,26.95,South,180,2.3,2.3,59,0.00,CLR,OVC,0.00,WeatherDisplay:10.37,2013-07-05 10:42:00,
2013-07-05 05:47:00,67.5,52.6,26.95,South,180,2.3,0.0,59,0.00,CLR,OVC,0.00,WeatherDisplay:10.37,2013-07-05 10:47:00,
2013-07-05 05:53:00,67.5,53.1,26.95,North,0,0.0,0.0,60,0.00,CLR,OVC,0.00,WeatherDisplay:10.37,2013-07-05 10:53:00,
2013-07-05 05:58:00,67.3,52.5,26.95,North,0,0.0,0.0,59,0.00,CLR,OVC,0.00,WeatherDisplay:10.37,2013-07-05 10:58:00,
2013-07-05 06:03:00,67.3,52.5,26.95,NE,45,0.0,0.0,59,0.00,CLR,OVC,0.00,WeatherDisplay:10.37,2013-07-05 11:03:00,
2013-07-05 06:08:00,67.1,52.7,26.95,NE,45,0.0,0.0,60,0.00,CLR,OVC,0.00,WeatherDisplay:10.37,2013-07-05 11:08:00,
2013-07-05 06:13:00,66.9,52.6,26.95,NE,45,0.0,0.0,60,0.00,CLR,OVC,0.00,WeatherDisplay:10.37,2013-07-05 11:13:00,
2013-07-05 06:18:00,66.6,52.7,26.95,North,0,0.0,0.0,61,0.00,CLR,OVC,0.00,WeatherDisplay:10.37,2013-07-05 11:18:00,
2013-07-05 06:24:00,66.2,52.8,26.95,North,0,0.0,0.0,62,0.00,CLR,OVC,0.00,WeatherDisplay:10.37,2013-07-05 11:24:00,
2013-07-05 06:29:00,66.0,53.1,26.95,North,0,0.0,0.0,63,0.00,CLR,OVC,0.00,WeatherDisplay:10.37,2013-07-05 11:29:00,
2013-07-05 06:34:00,65.8,52.9,26.95,North,0,0.0,0.0,63,0.00,CLR,OVC,0.00,WeatherDisplay:10.37,2013-07-05 11:34:00,
2013-07-05 06:39:00,65.7,52.7,26.95,NE,45,0.0,0.0,63,0.00,CLR,OVC,0.00,WeatherDisplay:10.37,2013-07-05 11:39:00,
2013-07-05 06:44:00,65.7,52.7,26.95,East,90,0.0,0.0,63,0.00,CLR,OVC,0.00,WeatherDisplay:10.37,2013-07-05 11:44:00,
2013-07-05 06:50:00,65.7,53.1,26.95,North,0,0.0,0.0,64,0.00,CLR,OVC,0.00,WeatherDisplay:10.37,2013-07-05 11:50:00,
2013-07-05 06:55:00,65.7,53.1,26.95,North,0,0.0,0.0,64,0.00,CLR,OVC,0.00,WeatherDisplay:10.37,2013-07-05 11:55:00,
2013-07-05 07:00:00,65.7,53.1,26.96,North,0,0.0,0.0,64,0.00,CLR,OVC,0.00,WeatherDisplay:10.37,2013-07-05 12:00:00,
2013-07-05 07:05:00,65.7,53.1,26.96,North,0,0.0,0.0,64,0.00,CLR,OVC,0.00,WeatherDisplay:10.37,2013-07-05 12:05:00,
2013-07-05 07:11:00,65.7,53.1,26.96,SW,225,0.0,0.0,64,0.00,CLR,OVC,0.00,WeatherDisplay:10.37,2013-07-05 12:11:00,
2013-07-05 07:16:00,65.8,53.3,26.96,SW,225,0.0,0.0,64,0.00,CLR,OVC,0.00,WeatherDisplay:10.37,2013-07-05 12:16:00,
2013-07-05 07:22:00,66.0,53.1,26.96,SW,225,1.1,0.0,63,0.00,CLR,OVC,0.00,WeatherDisplay:10.37,2013-07-05 12:22:00,
2013-07-05 07:27:00,66.2,52.8,26.95,East,90,1.1,0.0,62,0.00,CLR,OVC,0.00,WeatherDisplay:10.37,2013-07-05 12:27:00,
2013-07-05 07:32:00,66.2,53.2,26.95,SE,135,0.0,0.0,63,0.00,CLR,OVC,0.00,WeatherDisplay:10.37,2013-07-05 12:32:00,
2013-07-05 07:37:00,66.6,53.6,26.95,SE,135,1.1,0.0,63,0.00,CLR,OVC,0.00,WeatherDisplay:10.37,2013-07-05 12:37:00,
2013-07-05 07:42:00,66.7,53.7,26.95,NE,45,0.0,0.0,63,0.00,CLR,OVC,0.00,WeatherDisplay:10.37,2013-07-05 12:42:00,
2013-07-05 07:48:00,66.9,54.3,26.95,NE,45,0.0,0.0,64,0.00,CLR,OVC,0.00,WeatherDisplay:10.37,2013-07-05 12:48:00,
2013-07-05 07:53:00,66.9,54.3,26.95,NE,45,0.0,0.0,64,0.00,CLR,OVC,0.00,WeatherDisplay:10.37,2013-07-05 12:53:00,
2013-07-05 07:58:00,67.1,54.5,26.95,NE,45,0.0,0.0,64,0.00,CLR,OVC,0.00,WeatherDisplay:10.37,2013-07-05 12:58:00,
2013-07-05 08:04:00,67.5,54.9,26.95,NE,45,0.0,0.0,64,0.00,CLR,OVC,0.00,WeatherDisplay:10.37,2013-07-05 13:04:00,
2013-07-05 08:09:00,68.2,55.5,26.96,NW,315,0.0,0.0,64,0.00,CLR,OVC,0.00,WeatherDisplay:10.37,2013-07-05 13:09:00,
2013-07-05 08:15:00,68.9,56.2,26.96,East,90,0.0,0.0,64,0.00,CLR,OVC,0.00,WeatherDisplay:10.37,2013-07-05 13:15:00,
2013-07-05 08:20:00,69.6,56.9,26.95,West,270,0.0,0.0,64,0.00,CLR,OVC,0.00,WeatherDisplay:10.37,2013-07-05 13:20:00,
2013-07-05 08:26:00,70.3,56.7,26.96,South,180,1.1,0.0,62,0.00,CLR,OVC,0.00,WeatherDisplay:10.37,2013-07-05 13:26:00,
2013-07-05 08:32:00,71.1,57.4,26.95,South,180,3.5,3.5,62,0.00,CLR,OVC,0.00,WeatherDisplay:10.37,2013-07-05 13:32:00,
2013-07-05 08:37:00,72.5,56.4,26.95,South,180,5.8,5.8,57,0.00,CLR,OVC,0.00,WeatherDisplay:10.37,2013-07-05 13:37:00,
2013-07-05 08:43:00,74.7,56.4,26.95,East,90,4.6,4.6,53,0.00,CLR,OVC,0.00,WeatherDisplay:10.37,2013-07-05 13:43:00,
2013-07-05 08:48:00,76.8,55.6,26.96,SE,135,8.1,8.1,48,0.00,CLR,OVC,0.00,WeatherDisplay:10.37,2013-07-05 13:48:00,
2013-07-05 08:54:00,78.1,55.0,26.96,NE,45,4.6,4.6,45,0.00,CLR,OVC,0.00,WeatherDisplay:10.37,2013-07-05 13:54:00,
2013-07-05 08:59:00,79.3,55.5,26.96,SSE,158,3.5,3.5,44,0.00,CLR,OVC,0.00,WeatherDisplay:10.37,2013-07-05 13:59:00,
2013-07-05 09:04:00,79.7,55.9,26.96,East,90,5.8,5.8,44,0.00,CLR,OVC,0.00,WeatherDisplay:10.37,2013-07-05 14:04:00,
2013-07-05 09:09:00,81.7,56.4,26.97,SSE,158,2.3,2.3,42,0.00,CLR,OVC,0.00,WeatherDisplay:10.37,2013-07-05 14:09:00,
2013-07-05 09:15:00,82.9,58.1,26.97,SE,135,3.5,3.5,43,0.00,CLR,OVC,0.00,WeatherDisplay:10.37,2013-07-05 14:15:00,
2013-07-05 09:21:00,83.7,57.5,26.96,SW,225,6.9,6.9,41,0.00,CLR,OVC,0.00,WeatherDisplay:10.37,2013-07-05 14:21:00,
2013-07-05 09:26:00,84.2,57.9,26.96,SW,225,5.8,5.8,41,0.00,CLR,OVC,0.00,WeatherDisplay:10.37,2013-07-05 14:26:00,
2013-07-05 09:31:00,84.7,57.0,26.96,East,90,3.5,3.5,39,0.00,CLR,OVC,0.00,WeatherDisplay:10.37,2013-07-05 14:31:00,
2013-07-05 09:36:00,85.6,57.8,26.96,SE,135,4.6,4.6,39,0.00,CLR,OVC,0.00,WeatherDisplay:10.37,2013-07-05 14:36:00,
2013-07-05 09:41:00,86.0,57.4,26.95,SE,135,5.8,5.8,38,0.00,CLR,OVC,0.00,WeatherDisplay:10.37,2013-07-05 14:41:00,
2013-07-05 09:46:00,86.2,57.6,26.95,WSW,248,3.5,3.5,38,0.00,CLR,OVC,0.00,WeatherDisplay:10.37,2013-07-05 14:46:00,
2013-07-05 09:52:00,86.7,56.6,26.96,South,180,3.8,3.8,36,0.00,CLR,OVC,0.00,WeatherDisplay:10.37,2013-07-05 14:52:00,
2013-07-05 09:57:00,86.7,56.6,26.96,East,90,3.5,3.5,36,0.00,CLR,OVC,0.00,WeatherDisplay:10.37,2013-07-05 14:57:00,
2013-07-05 10:03:00,86.9,56.7,26.96,SE,135,5.8,5.8,36,0.00,CLR,OVC,0.00,WeatherDisplay:10.37,2013-07-05 15:03:00,
2013-07-05 10:08:00,86.9,57.5,26.96,SE,135,8.1,8.1,37,0.00,CLR,OVC,0.00,WeatherDisplay:10.37,2013-07-05 15:08:00,
2013-07-05 10:13:00,87.3,58.6,26.96,South,180,9.2,9.2,38,0.00,CLR,OVC,0.00,WeatherDisplay:10.37,2013-07-05 15:13:00,
2013-07-05 10:18:00,87.4,57.2,26.96,South,180,6.9,6.9,36,0.00,CLR,OVC,0.00,WeatherDisplay:10.37,2013-07-05 15:18:00,
2013-07-05 10:23:00,86.7,57.3,26.95,East,90,5.8,5.8,37,0.00,CLR,OVC,0.00,WeatherDisplay:10.37,2013-07-05 15:23:00,
2013-07-05 10:28:00,87.1,60.5,26.95,South,180,2.3,3.1,41,0.00,CLR,OVC,0.00,WeatherDisplay:10.37,2013-07-05 15:28:00,
2013-07-05 10:33:00,87.6,58.1,26.95,South,180,3.5,3.8,37,0.00,CLR,OVC,0.00,WeatherDisplay:10.37,2013-07-05 15:33:00,
2013-07-05 10:38:00,88.2,57.8,26.95,South,180,3.5,3.8,36,0.00,CLR,OVC,0.00,WeatherDisplay:10.37,2013-07-05 15:38:00,
2013-07-05 10:43:00,88.9,59.2,26.95,SSE,158,5.8,5.8,37,0.00,CLR,OVC,0.00,WeatherDisplay:10.37,2013-07-05 15:43:00,
2013-07-05 10:48:00,88.9,58.5,26.95,South,180,8.1,8.1,36,0.00,CLR,OVC,0.00,WeatherDisplay:10.37,2013-07-05 15:48:00,
2013-07-05 10:49:00,88.9,56.9,26.95,SW,225,8.1,8.1,34,0.00,CLR,OVC,0.00,WeatherDisplay:10.37,2013-07-05 15:49:00,
2013-07-05 10:54:00,89.1,58.6,26.95,SE,135,5.8,5.8,36,0.00,CLR,OVC,0.00,WeatherDisplay:10.37,2013-07-05 15:54:00,
2013-07-05 10:59:00,89.8,58.5,26.95,SE,135,5.8,5.8,35,0.00,CLR,OVC,0.00,WeatherDisplay:10.37,2013-07-05 15:59:00,
2013-07-05 11:04:00,90.0,58.6,26.95,NW,315,3.5,3.5,35,0.00,CLR,OVC,0.00,WeatherDisplay:10.37,2013-07-05 16:04:00,
2013-07-05 11:09:00,91.2,58.1,26.95,SE,135,3.5,3.5,33,0.00,CLR,OVC,0.00,WeatherDisplay:10.37,2013-07-05 16:09:00,
2013-07-05 11:14:00,91.9,61.2,26.94,SSW,202,5.8,5.8,36,0.00,CLR,OVC,0.00,WeatherDisplay:10.37,2013-07-05 16:14:00,
2013-07-05 11:19:00,92.1,61.3,26.94,SW,225,8.1,8.1,36,0.00,CLR,OVC,0.00,WeatherDisplay:10.37,2013-07-05 16:19:00,
2013-07-05 11:24:00,92.5,61.6,26.94,WNW,292,9.2,9.2,36,0.00,CLR,OVC,0.00,WeatherDisplay:10.37,2013-07-05 16:24:00,
2013-07-05 11:29:00,93.2,61.5,26.94,South,180,5.8,5.8,35,0.00,CLR,OVC,0.00,WeatherDisplay:10.37,2013-07-05 16:29:00,
2013-07-05 11:34:00,93.7,61.1,26.93,ESE,112,6.9,6.9,34,0.00,CLR,OVC,0.00,WeatherDisplay:10.37,2013-07-05 16:34:00,
2013-07-05 11:39:00,94.3,61.6,26.93,South,180,5.8,6.9,34,0.00,CLR,OVC,0.00,WeatherDisplay:10.37,2013-07-05 16:39:00,
2013-07-05 11:45:00,94.6,61.9,26.93,South,180,9.2,9.2,34,0.00,CLR,OVC,0.00,WeatherDisplay:10.37,2013-07-05 16:45:00,
2013-07-05 11:50:00,95.2,61.5,26.93,South,180,5.8,6.0,33,0.00,CLR,OVC,0.00,WeatherDisplay:10.37,2013-07-05 16:50:00,
2013-07-05 11:55:00,95.4,61.7,26.93,South,180,6.9,6.9,33,0.00,CLR,OVC,0.00,WeatherDisplay:10.37,2013-07-05 16:55:00,
2013-07-05 12:00:00,95.9,62.2,26.93,SSE,158,12.1,12.1,33,0.00,CLR,OVC,0.00,WeatherDisplay:10.37,2013-07-05 17:00:00,
2013-07-05 12:05:00,96.3,61.6,26.93,SW,225,9.2,9.2,32,0.00,CLR,OVC,0.00,WeatherDisplay:10.37,2013-07-05 17:05:00,
2013-07-05 12:10:00,96.3,59.8,26.92,SE,135,10.4,10.4,30,0.00,CLR,OVC,0.00,WeatherDisplay:10.37,2013-07-05 17:10:00,
2013-07-05 12:15:00,95.7,60.2,26.93,South,180,8.1,8.1,31,0.00,CLR,OVC,0.00,WeatherDisplay:10.37,2013-07-05 17:15:00,
2013-07-05 12:20:00,96.3,62.5,26.92,SW,225,9.2,9.2,33,0.00,CLR,OVC,0.00,WeatherDisplay:10.37,2013-07-05 17:20:00,
2013-07-05 12:25:00,97.2,59.6,26.92,SW,225,8.1,8.1,29,0.00,CLR,OVC,0.00,WeatherDisplay:10.37,2013-07-05 17:25:00,
2013-07-05 12:30:00,95.4,59.0,26.92,South,180,8.1,8.1,30,0.00,CLR,OVC,0.00,WeatherDisplay:10.37,2013-07-05 17:30:00,
2013-07-05 12:35:00,94.3,59.9,26.92,SE,135,8.1,8.1,32,0.00,CLR,OVC,0.00,WeatherDisplay:10.37,2013-07-05 17:35:00,
2013-07-05 12:40:00,94.8,60.4,26.92,South,180,9.2,9.2,32,0.00,CLR,OVC,0.00,WeatherDisplay:10.37,2013-07-05 17:40:00,
2013-07-05 12:45:00,96.3,58.8,26.92,SSE,158,13.8,13.8,29,0.00,CLR,OVC,0.00,WeatherDisplay:10.37,2013-07-05 17:45:00,
2013-07-05 12:50:00,96.8,55.2,26.92,SSE,158,16.1,16.1,25,0.00,CLR,OVC,0.00,WeatherDisplay:10.37,2013-07-05 17:50:00,
2013-07-05 12:55:00,95.7,59.3,26.91,SSW,202,12.7,12.7,30,0.00,CLR,OVC,0.00,WeatherDisplay:10.37,2013-07-05 17:55:00,
2013-07-05 13:00:00,96.6,60.1,26.91,South,180,10.4,10.4,30,0.00,CLR,OVC,0.00,WeatherDisplay:10.37,2013-07-05 18:00:00,
2013-07-05 13:05:00,96.6,60.1,26.91,South,180,8.1,8.1,30,0.00,CLR,OVC,0.00,WeatherDisplay:10.37,2013-07-05 18:05:00,
2013-07-05 13:10:00,96.4,59.0,26.91,SW,225,15.0,15.0,29,0.00,CLR,OVC,0.00,WeatherDisplay:10.37,2013-07-05 18:10:00,
2013-07-05 13:15:00,97.5,57.9,26.91,SE,135,8.1,8.1,27,0.00,CLR,OVC,0.00,WeatherDisplay:10.37,2013-07-05 18:15:00,
2013-07-05 13:20:00,98.4,60.7,26.91,South,180,8.1,8.1,29,0.00,CLR,OVC,0.00,WeatherDisplay:10.37,2013-07-05 18:20:00,
2013-07-05 13:25:00,98.8,56.8,26.90,WSW,248,10.4,10.4,25,0.00,CLR,OVC,0.00,WeatherDisplay:10.37,2013-07-05 18:25:00,
2013-07-05 13:30:00,99.1,57.1,26.90,SE,135,12.7,12.7,25,0.00,CLR,OVC,0.00,WeatherDisplay:10.37,2013-07-05 18:30:00,
2013-07-05 13:35:00,99.1,56.0,26.90,SW,225,15.0,15.0,24,0.00,CLR,OVC,0.00,WeatherDisplay:10.37,2013-07-05 18:35:00,
2013-07-05 13:40:00,99.3,56.2,26.90,SW,225,12.7,12.7,24,0.00,CLR,OVC,0.00,WeatherDisplay:10.37,2013-07-05 18:40:00,
2013-07-05 13:45:00,99.3,56.2,26.90,South,180,17.3,17.3,24,0.00,CLR,OVC,0.00,WeatherDisplay:10.37,2013-07-05 18:45:00,
2013-07-05 13:50:00,99.1,57.1,26.89,SE,135,15.0,15.0,25,0.00,CLR,OVC,0.00,WeatherDisplay:10.37,2013-07-05 18:50:00,
2013-07-05 13:51:00,99.1,57.1,26.89,SE,135,10.4,10.4,25,0.00,CLR,OVC,0.00,WeatherDisplay:10.37,2013-07-05 18:51:00,
2013-07-05 13:56:00,99.7,55.3,26.90,SW,225,15.0,15.0,23,0.00,CLR,OVC,0.00,WeatherDisplay:10.37,2013-07-05 18:56:00,
2013-07-05 14:01:00,99.3,55.0,26.90,South,180,15.0,15.0,23,0.00,CLR,OVC,0.00,WeatherDisplay:10.37,2013-07-05 19:01:00,
2013-07-05 14:06:00,98.1,56.2,26.89,South,180,8.1,8.1,25,0.00,CLR,OVC,0.00,WeatherDisplay:10.37,2013-07-05 19:06:00,
2013-07-05 14:11:00,97.7,55.9,26.89,South,180,15.0,15.0,25,0.00,CLR,OVC,0.00,WeatherDisplay:10.37,2013-07-05 19:11:00,
2013-07-05 14:16:00,97.2,55.5,26.89,South,180,12.7,12.7,25,0.00,CLR,OVC,0.00,WeatherDisplay:10.37,2013-07-05 19:16:00,
2013-07-05 14:21:00,97.5,56.9,26.89,South,180,5.8,5.8,26,0.00,CLR,OVC,0.00,WeatherDisplay:10.37,2013-07-05 19:21:00,
2013-07-05 14:26:00,98.1,55.1,26.89,West,270,17.3,17.3,24,0.00,CLR,OVC,0.00,WeatherDisplay:10.37,2013-07-05 19:26:00,
2013-07-05 14:31:00,98.6,56.7,26.88,SW,225,10.4,10.4,25,0.00,CLR,OVC,0.00,WeatherDisplay:10.37,2013-07-05 19:31:00,
2013-07-05 14:36:00,99.1,56.0,26.89,East,90,12.7,12.7,24,0.00,CLR,OVC,0.00,WeatherDisplay:10.37,2013-07-05 19:36:00,
2013-07-05 14:37:00,99.1,56.0,26.89,East,90,8.1,8.1,24,0.00,CLR,OVC,0.00,WeatherDisplay:10.37,2013-07-05 19:37:00,
2013-07-05 14:42:00,98.8,54.5,26.88,South,180,16.1,16.1,23,0.00,CLR,OVC,0.00,WeatherDisplay:10.37,2013-07-05 19:42:00,
2013-07-05 14:47:00,98.6,55.6,26.88,SE,135,10.4,10.4,24,0.00,CLR,OVC,0.00,WeatherDisplay:10.37,2013-07-05 19:47:00,
2013-07-05 14:52:00,98.6,56.7,26.88,SSW,202,10.4,10.4,25,0.00,CLR,OVC,0.00,WeatherDisplay:10.37,2013-07-05 19:52:00,
2013-07-05 14:57:00,99.0,55.9,26.88,South,180,10.4,10.4,24,0.00,CLR,OVC,0.00,WeatherDisplay:10.37,2013-07-05 19:57:00,
2013-07-05 15:02:00,99.1,54.8,26.88,South,180,8.1,8.1,23,0.00,CLR,OVC,0.00,WeatherDisplay:10.37,2013-07-05 20:02:00,
2013-07-05 15:07:00,99.1,54.8,26.88,South,180,8.1,8.1,23,0.00,CLR,OVC,0.00,WeatherDisplay:10.37,2013-07-05 20:07:00,
2013-07-05 15:12:00,99.0,54.7,26.88,SE,135,15.0,15.0,23,0.00,CLR,OVC,0.00,WeatherDisplay:10.37,2013-07-05 20:12:00,
2013-07-05 15:17:00,98.8,54.5,26.87,SW,225,8.1,8.1,23,0.00,CLR,OVC,0.00,WeatherDisplay:10.37,2013-07-05 20:17:00,
2013-07-05 15:22:00,98.4,55.4,26.88,East,90,11.5,11.5,24,0.00,CLR,OVC,0.00,WeatherDisplay:10.37,2013-07-05 20:22:00,
2013-07-05 15:27:00,98.2,55.3,26.88,South,180,6.9,6.9,24,0.00,CLR,OVC,0.00,WeatherDisplay:10.37,2013-07-05 20:27:00,
2013-07-05 15:32:00,98.1,56.2,26.88,SE,135,9.2,9.2,25,0.00,CLR,OVC,0.00,WeatherDisplay:10.37,2013-07-05 20:32:00,
2013-07-05 15:37:00,98.1,56.2,26.87,SW,225,5.8,5.8,25,0.00,CLR,OVC,0.00,WeatherDisplay:10.37,2013-07-05 20:37:00,
2013-07-05 15:42:00,98.2,56.4,26.88,SE,135,11.5,11.5,25,0.00,CLR,OVC,0.00,WeatherDisplay:10.37,2013-07-05 20:42:00,
2013-07-05 15:47:00,98.4,56.5,26.87,South,180,6.9,6.9,25,0.00,CLR,OVC,0.00,WeatherDisplay:10.37,2013-07-05 20:47:00,
2013-07-05 15:52:00,98.4,55.4,26.87,South,180,13.8,13.8,24,0.00,CLR,OVC,0.00,WeatherDisplay:10.37,2013-07-05 20:52:00,
2013-07-05 15:57:00,98.2,54.1,26.87,South,180,8.1,8.1,23,0.00,CLR,OVC,0.00,WeatherDisplay:10.37,2013-07-05 20:57:00,
2013-07-05 16:02:00,98.2,56.4,26.87,SE,135,8.1,8.1,25,0.00,CLR,OVC,0.00,WeatherDisplay:10.37,2013-07-05 21:02:00,
2013-07-05 16:07:00,97.5,54.7,26.87,SW,225,10.4,10.4,24,0.00,CLR,OVC,0.00,WeatherDisplay:10.37,2013-07-05 21:07:00,
2013-07-05 16:12:00,97.3,54.5,26.87,WSW,248,5.8,5.8,24,0.00,CLR,OVC,0.00,WeatherDisplay:10.37,2013-07-05 21:12:00,
2013-07-05 16:17:00,97.5,54.7,26.87,SE,135,5.8,5.8,24,0.00,CLR,OVC,0.00,WeatherDisplay:10.37,2013-07-05 21:17:00,
2013-07-05 16:22:00,97.5,54.7,26.86,South,180,9.2,9.2,24,0.00,CLR,OVC,0.00,WeatherDisplay:10.37,2013-07-05 21:22:00,
2013-07-05 16:23:00,97.5,53.5,26.87,South,180,8.1,8.1,23,0.00,CLR,OVC,0.00,WeatherDisplay:10.37,2013-07-05 21:23:00,
2013-07-05 16:28:00,97.2,53.2,26.86,South,180,8.1,8.1,23,0.00,CLR,OVC,0.00,WeatherDisplay:10.37,2013-07-05 21:28:00,
2013-07-05 16:33:00,96.6,55.0,26.86,SW,225,11.5,11.5,25,0.00,CLR,OVC,0.00,WeatherDisplay:10.37,2013-07-05 21:33:00,
2013-07-05 16:38:00,96.4,53.8,26.86,SE,135,8.1,8.1,24,0.00,CLR,OVC,0.00,WeatherDisplay:10.37,2013-07-05 21:38:00,
2013-07-05 16:43:00,96.3,53.6,26.86,SE,135,8.3,8.3,24,0.00,CLR,OVC,0.00,WeatherDisplay:10.37,2013-07-05 21:43:00,
2013-07-05 16:48:00,96.1,53.5,26.86,South,180,3.5,3.5,24,0.00,CLR,OVC,0.00,WeatherDisplay:10.37,2013-07-05 21:48:00,
2013-07-05 16:53:00,95.9,54.4,26.86,East,90,5.8,5.8,25,0.00,CLR,OVC,0.00,WeatherDisplay:10.37,2013-07-05 21:53:00,
2013-07-05 16:54:00,95.9,54.4,26.86,East,90,3.5,3.5,25,0.00,CLR,OVC,0.00,WeatherDisplay:10.37,2013-07-05 21:54:00,
2013-07-05 16:59:00,95.7,54.3,26.85,South,180,5.8,5.8,25,0.00,CLR,OVC,0.00,WeatherDisplay:10.37,2013-07-05 21:59:00,
2013-07-05 17:04:00,95.7,54.3,26.86,SW,225,4.6,4.6,25,0.00,CLR,OVC,0.00,WeatherDisplay:10.37,2013-07-05 22:04:00,
2013-07-05 17:09:00,95.5,54.1,26.85,South,180,4.6,4.6,25,0.00,CLR,OVC,0.00,WeatherDisplay:10.37,2013-07-05 22:09:00,
2013-07-05 17:14:00,95.4,54.0,26.86,SE,135,4.6,4.6,25,0.00,CLR,OVC,0.00,WeatherDisplay:10.37,2013-07-05 22:14:00,
2013-07-05 17:19:00,95.2,53.8,26.85,South,180,5.8,5.8,25,0.00,CLR,OVC,0.00,WeatherDisplay:10.37,2013-07-05 22:19:00,
2013-07-05 17:24:00,95.0,54.7,26.85,South,180,3.5,3.5,26,0.00,CLR,OVC,0.00,WeatherDisplay:10.37,2013-07-05 22:24:00,
2013-07-05 17:29:00,94.3,55.2,26.85,SE,135,4.6,4.6,27,0.00,CLR,OVC,0.00,WeatherDisplay:10.37,2013-07-05 22:29:00,
2013-07-05 17:34:00,94.3,55.2,26.85,South,180,3.5,3.5,27,0.00,CLR,OVC,0.00,WeatherDisplay:10.37,2013-07-05 22:34:00,
2013-07-05 17:39:00,93.9,53.8,26.85,SE,135,4.6,4.6,26,0.00,CLR,OVC,0.00,WeatherDisplay:10.37,2013-07-05 22:39:00,
2013-07-05 17:44:00,93.9,54.9,26.85,SE,135,3.5,3.5,27,0.00,CLR,OVC,0.00,WeatherDisplay:10.37,2013-07-05 22:44:00,
2013-07-05 17:49:00,93.9,54.9,26.85,South,180,4.6,4.6,27,0.00,CLR,OVC,0.00,WeatherDisplay:10.37,2013-07-05 22:49:00,
2013-07-05 17:54:00,93.7,54.7,26.85,South,180,4.6,4.6,27,0.00,CLR,OVC,0.00,WeatherDisplay:10.37,2013-07-05 22:54:00,
2013-07-05 17:59:00,93.7,54.7,26.85,South,180,3.5,3.5,27,0.00,CLR,OVC,0.00,WeatherDisplay:10.37,2013-07-05 22:59:00,
2013-07-05 18:04:00,93.4,54.4,26.85,East,90,5.8,5.8,27,0.00,CLR,OVC,0.00,WeatherDisplay:10.37,2013-07-05 23:04:00,
2013-07-05 18:09:00,93.2,54.3,26.85,South,180,8.1,8.1,27,0.00,CLR,OVC,0.00,WeatherDisplay:10.37,2013-07-05 23:09:00,
2013-07-05 18:14:00,93.0,55.1,26.86,SE,135,5.8,5.8,28,0.00,CLR,OVC,0.00,WeatherDisplay:10.37,2013-07-05 23:14:00,
2013-07-05 18:19:00,92.7,57.6,26.86,South,180,2.3,2.3,31,0.00,CLR,OVC,0.00,WeatherDisplay:10.37,2013-07-05 23:19:00,
2013-07-05 18:24:00,91.9,60.4,26.86,East,90,3.5,3.5,35,0.00,CLR,OVC,0.00,WeatherDisplay:10.37,2013-07-05 23:24:00,
2013-07-05 18:29:00,91.2,57.2,26.86,NW,315,1.6,0.0,32,0.00,CLR,OVC,0.00,WeatherDisplay:10.37,2013-07-05 23:29:00,
2013-07-05 18:34:00,90.7,57.6,26.86,SW,225,3.5,3.5,33,0.00,CLR,OVC,0.00,WeatherDisplay:10.37,2013-07-05 23:34:00,
2013-07-05 18:39:00,89.8,55.1,26.86,North,0,6.9,6.9,31,0.00,CLR,OVC,0.00,WeatherDisplay:10.37,2013-07-05 23:39:00,
2013-07-05 18:44:00,89.6,56.7,26.86,East,90,1.1,0.0,33,0.00,CLR,OVC,0.00,WeatherDisplay:10.37,2013-07-05 23:44:00,
2013-07-05 18:49:00,88.5,62.5,26.86,NE,45,3.5,3.5,42,0.00,CLR,OVC,0.00,WeatherDisplay:10.37,2013-07-05 23:49:00,
2013-07-05 18:54:00,87.3,63.3,26.86,SE,135,1.1,0.0,45,0.00,CLR,OVC,0.00,WeatherDisplay:10.37,2013-07-05 23:54:00,
2013-07-05 18:59:00,85.3,61.5,26.86,SE,135,2.3,2.3,45,0.00,CLR,OVC,0.00,WeatherDisplay:10.37,2013-07-05 23:59:00,
2013-07-05 19:04:00,85.1,61.4,26.86,East,90,1.1,1.1,45,0.00,CLR,OVC,0.00,WeatherDisplay:10.37,2013-07-06 00:04:00,
2013-07-05 19:09:00,83.8,63.2,26.86,East,90,1.1,0.0,50,0.00,CLR,OVC,0.00,WeatherDisplay:10.37,2013-07-06 00:09:00,
2013-07-05 19:14:00,83.5,63.4,26.85,SE,135,3.5,0.0,51,0.00,CLR,OVC,0.00,WeatherDisplay:10.37,2013-07-06 00:14:00,
2013-07-05 19:19:00,83.5,62.9,26.85,SE,135,5.8,5.8,50,0.00,CLR,OVC,0.00,WeatherDisplay:10.37,2013-07-06 00:19:00,
2013-07-05 19:24:00,83.8,63.2,26.85,East,90,2.3,0.0,50,0.00,CLR,OVC,0.00,WeatherDisplay:10.37,2013-07-06 00:24:00,
2013-07-05 19:29:00,84.2,62.4,26.86,South,180,3.5,3.5,48,0.00,CLR,OVC,0.00,WeatherDisplay:10.37,2013-07-06 00:29:00,
2013-07-05 19:34:00,85.6,60.6,26.86,WSW,248,11.5,11.5,43,0.00,CLR,OVC,0.00,WeatherDisplay:10.37,2013-07-06 00:34:00,
2013-07-05 19:39:00,86.9,59.0,26.86,South,180,10.4,10.4,39,0.00,CLR,OVC,0.00,WeatherDisplay:10.37,2013-07-06 00:39:00,
2013-07-05 19:44:00,87.1,59.1,26.86,South,180,8.1,8.1,39,0.00,CLR,OVC,0.00,WeatherDisplay:10.37,2013-07-06 00:44:00,
2013-07-05 19:49:00,87.1,59.1,26.86,South,180,6.9,6.9,39,0.00,CLR,OVC,0.00,WeatherDisplay:10.37,2013-07-06 00:49:00,
2013-07-05 19:54:00,86.9,59.0,26.87,SE,135,8.1,8.1,39,0.00,CLR,OVC,0.00,WeatherDisplay:10.37,2013-07-06 00:54:00,
2013-07-05 19:59:00,86.9,59.0,26.87,SW,225,17.3,17.3,39,0.00,CLR,OVC,0.00,WeatherDisplay:10.37,2013-07-06 00:59:00,
2013-07-05 20:04:00,86.5,58.6,26.87,SE,135,12.7,12.7,39,0.00,CLR,OVC,0.00,WeatherDisplay:10.37,2013-07-06 01:04:00,
2013-07-05 20:09:00,86.2,59.0,26.87,SE,135,13.8,13.8,40,0.00,CLR,OVC,0.00,WeatherDisplay:10.37,2013-07-06 01:09:00,
2013-07-05 20:14:00,86.0,58.9,26.87,SW,225,6.9,6.9,40,0.00,CLR,OVC,0.00,WeatherDisplay:10.37,2013-07-06 01:14:00,
2013-07-05 20:19:00,85.8,58.7,26.87,South,180,6.9,8.3,40,0.00,CLR,OVC,0.00,WeatherDisplay:10.37,2013-07-06 01:19:00,
2013-07-05 20:25:00,85.6,59.2,26.87,South,180,9.2,9.2,41,0.00,CLR,OVC,0.00,WeatherDisplay:10.37,2013-07-06 01:25:00,
2013-07-05 20:30:00,85.5,59.8,26.87,South,180,6.9,6.9,42,0.00,CLR,OVC,0.00,WeatherDisplay:10.37,2013-07-06 01:30:00,
2013-07-05 20:35:00,84.9,59.9,26.87,SW,225,6.9,6.9,43,0.00,CLR,OVC,0.00,WeatherDisplay:10.37,2013-07-06 01:35:00,
2013-07-05 20:40:00,84.6,59.6,26.87,SE,135,6.9,6.9,43,0.00,CLR,OVC,0.00,WeatherDisplay:10.37,2013-07-06 01:40:00,
2013-07-05 20:45:00,84.0,60.4,26.87,South,180,5.8,5.8,45,0.00,CLR,OVC,0.00,WeatherDisplay:10.37,2013-07-06 01:45:00,
2013-07-05 20:50:00,83.5,59.9,26.87,East,90,10.4,10.4,45,0.00,CLR,OVC,0.00,WeatherDisplay:10.37,2013-07-06 01:50:00,
2013-07-05 20:55:00,83.1,59.6,26.87,WSW,248,9.2,9.2,45,0.00,CLR,OVC,0.00,WeatherDisplay:10.37,2013-07-06 01:55:00,
2013-07-05 21:00:00,82.6,59.1,26.87,East,90,9.2,9.2,45,0.00,CLR,OVC,0.00,WeatherDisplay:10.37,2013-07-06 02:00:00,
2013-07-05 21:05:00,82.6,59.1,26.87,East,90,8.1,8.1,45,0.00,CLR,OVC,0.00,WeatherDisplay:10.37,2013-07-06 02:05:00,
2013-07-05 21:10:00,82.0,58.0,26.87,South,180,6.9,6.9,44,0.00,CLR,OVC,0.00,WeatherDisplay:10.37,2013-07-06 02:10:00,
2013-07-05 21:15:00,81.7,58.3,26.87,South,180,5.8,5.8,45,0.00,CLR,OVC,0.00,WeatherDisplay:10.37,2013-07-06 02:15:00,
2013-07-05 21:20:00,81.3,57.9,26.87,South,180,12.7,12.7,45,0.00,CLR,OVC,0.00,WeatherDisplay:10.37,2013-07-06 02:20:00,
2013-07-05 21:25:00,81.1,58.4,26.87,South,180,9.2,9.2,46,0.00,CLR,OVC,0.00,WeatherDisplay:10.37,2013-07-06 02:25:00,
2013-07-05 21:30:00,80.8,58.1,26.88,SE,135,5.8,5.8,46,0.00,CLR,OVC,0.00,WeatherDisplay:10.37,2013-07-06 02:30:00,
2013-07-05 21:35:00,80.4,58.9,26.88,South,180,5.8,5.8,48,0.00,CLR,OVC,0.00,WeatherDisplay:10.37,2013-07-06 02:35:00,
2013-07-05 21:40:00,80.2,58.8,26.88,SW,225,12.7,12.7,48,0.00,CLR,OVC,0.00,WeatherDisplay:10.37,2013-07-06 02:40:00,
2013-07-05 21:45:00,80.1,58.6,26.88,SW,225,10.4,10.4,48,0.00,CLR,OVC,0.00,WeatherDisplay:10.37,2013-07-06 02:45:00,
2013-07-05 21:50:00,80.1,58.6,26.88,SE,135,8.1,8.1,48,0.00,CLR,OVC,0.00,WeatherDisplay:10.37,2013-07-06 02:50:00,
2013-07-05 21:55:00,79.9,57.8,26.88,South,180,5.8,5.8,47,0.00,CLR,OVC,0.00,WeatherDisplay:10.37,2013-07-06 02:55:00,
2013-07-05 22:00:00,79.9,57.8,26.88,SW,225,5.8,5.8,47,0.00,CLR,OVC,0.00,WeatherDisplay:10.37,2013-07-06 03:00:00,
2013-07-05 22:05:00,79.9,57.8,26.88,SW,225,8.1,8.1,47,0.00,CLR,OVC,0.00,WeatherDisplay:10.37,2013-07-06 03:05:00,
2013-07-05 22:10:00,79.9,57.8,26.88,South,180,12.7,12.7,47,0.00,CLR,OVC,0.00,WeatherDisplay:10.37,2013-07-06 03:10:00,
2013-07-05 22:15:00,79.7,58.3,26.88,SW,225,8.1,8.1,48,0.00,CLR,OVC,0.00,WeatherDisplay:10.37,2013-07-06 03:15:00,
2013-07-05 22:20:00,79.5,58.1,26.89,South,180,10.4,10.4,48,0.00,CLR,OVC,0.00,WeatherDisplay:10.37,2013-07-06 03:20:00,
2013-07-05 22:25:00,79.3,58.5,26.88,SE,135,4.6,4.6,49,0.00,CLR,OVC,0.00,WeatherDisplay:10.37,2013-07-06 03:25:00,
2013-07-05 22:30:00,79.0,58.8,26.88,South,180,8.1,8.1,50,0.00,CLR,OVC,0.00,WeatherDisplay:10.37,2013-07-06 03:30:00,
2013-07-05 22:35:00,78.8,59.1,26.88,SW,225,6.9,6.9,51,0.00,CLR,OVC,0.00,WeatherDisplay:10.37,2013-07-06 03:35:00,
2013-07-05 22:36:00,78.6,59.5,26.88,SE,135,6.9,6.9,52,0.00,CLR,OVC,0.00,WeatherDisplay:10.37,2013-07-06 03:36:00,
2013-07-05 22:41:00,78.4,59.9,26.88,SE,135,8.1,8.1,53,0.00,CLR,OVC,0.00,WeatherDisplay:10.37,2013-07-06 03:41:00,
2013-07-05 22:46:00,78.3,59.7,26.88,SSE,158,6.9,6.9,53,0.00,CLR,OVC,0.00,WeatherDisplay:10.37,2013-07-06 03:46:00,
2013-07-05 22:51:00,78.1,59.6,26.88,SW,225,8.1,8.1,53,0.00,CLR,OVC,0.00,WeatherDisplay:10.37,2013-07-06 03:51:00,
2013-07-05 22:56:00,77.7,59.7,26.88,South,180,4.6,4.6,54,0.00,CLR,OVC,0.00,WeatherDisplay:10.37,2013-07-06 03:56:00,
2013-07-05 23:01:00,77.5,59.6,26.89,SSE,158,4.6,4.6,54,0.00,CLR,OVC,0.00,WeatherDisplay:10.37,2013-07-06 04:01:00,
2013-07-05 23:02:00,77.5,59.6,26.89,SSE,158,4.6,4.6,54,0.00,CLR,OVC,0.00,WeatherDisplay:10.37,2013-07-06 04:02:00,
2013-07-05 23:07:00,77.5,59.6,26.89,SSE,158,4.6,4.6,54,0.00,CLR,OVC,0.00,WeatherDisplay:10.37,2013-07-06 04:07:00,
2013-07-05 23:12:00,77.4,58.9,26.89,SW,225,6.9,6.9,53,0.00,CLR,OVC,0.00,WeatherDisplay:10.37,2013-07-06 04:12:00,
2013-07-05 23:17:00,77.7,58.7,26.88,South,180,8.1,8.1,52,0.00,CLR,OVC,0.00,WeatherDisplay:10.37,2013-07-06 04:17:00,
2013-07-05 23:22:00,78.6,57.9,26.88,South,180,8.1,8.1,49,0.00,CLR,OVC,0.00,WeatherDisplay:10.37,2013-07-06 04:22:00,
2013-07-05 23:27:00,79.3,57.4,26.88,South,180,6.9,6.9,47,0.00,CLR,OVC,0.00,WeatherDisplay:10.37,2013-07-06 04:27:00,
2013-07-05 23:32:00,79.7,57.1,26.88,South,180,6.9,6.9,46,0.00,CLR,OVC,0.00,WeatherDisplay:10.37,2013-07-06 04:32:00,
2013-07-05 23:37:00,79.7,56.5,26.89,SE,135,8.1,8.1,45,0.00,CLR,OVC,0.00,WeatherDisplay:10.37,2013-07-06 04:37:00,
2013-07-05 23:42:00,79.7,56.5,26.89,South,180,5.8,5.8,45,0.00,CLR,OVC,0.00,WeatherDisplay:10.37,2013-07-06 04:42:00,
2013-07-05 23:47:00,79.7,56.5,26.88,South,180,8.1,8.1,45,0.00,CLR,OVC,0.00,WeatherDisplay:10.37,2013-07-06 04:47:00,
2013-07-05 23:52:00,79.5,56.3,26.89,South,180,9.2,9.2,45,0.00,CLR,OVC,0.00,WeatherDisplay:10.37,2013-07-06 04:52:00,
2013-07-05 23:57:00,79.5,56.9,26.88,SE,135,9.2,9.2,46,0.00,CLR,OVC,0.00,WeatherDisplay:10.37,2013-07-06 04:57:00,